DECAYED

CZ-6A DEB, 61377 (Decayed)

Orbit data source: Space-Track

CZ-6A DEB, 61377 was space debris in LEO originally from a launch on Tue, 06 Aug 2024 UTC launched from the Taiyaun Space Center, China (TSC). Debris objects in space refer to the collection of defunct objects orbiting the Earth. Examples of debris include non-operational satellites, rocket bodies, and fragments generated from explosions, collisions, or faulty payload assembly.

Not visible in the next 10 days
Identifier
61377, 2024-140WS
Orbit
Decayed
Country
Flag of CNCN / PRC
Related business
Manufacturer
SAST
Mission
Decayed spacecraft
Bus & Motor
Unknown
Mass
Unknown
Launch date (UTC)
2024-08-06 (2 years ago)
Launch vehicle
Unknown
Launch site
Taiyaun Space Center, China (TSC)
Object type
Payload
Rocket body
Debris
Shape & HBR
Unknown shape, 0.1 m
Radar Cross Section
Small (<0.1 m²)

Expand to show TLE details & history
Last TLE update: 2 months ago

TLE from 2 months ago
0 CZ-6A DEB
1 61377U 24140WS  26103.52926263  .04700490  58124-1  73364-2 0  9992
2 61377  89.1908 290.3960 0018711 296.6486  63.2891 16.09450177 87935
Epoch: 2026-04-13T12:42Z
TLE epoch observation values (Epoch: 2026-04-13T12:42:08.291Z)
Latitude
-0.00001°
Longitude
-101.8571°
Altitude
246.116 km
Speed
7.762 km/s
True Right ascension
19h 21m 35s
True Declination
0° 00' 00"
Sunlit
Object was in daylight at epoch
Visualization orbit readout
Latitude
Unknown
Longitude
Unknown
Altitude
Unknown
Speed
Unknown
Apparent Right ascension
Unknown
Apparent Declination
Unknown
Sunlit
N/A
Visualization observer readout
Local Sidereal Time
10:17:08
Azimuth
Unknown
Elevation
Unknown
Doppler factor
Unknown
Orbital elements
Apogee altitude
257.429 km
Perigee altitude
232.644 km
Semi-major axis
6,623.173 km
Eccentricity
0.00187
Inclination
89.1908°
RAAN
290.396°
Arg. of periapsis
296.6486°
True anomaly
63.48083°
Mean anomaly
63.2891°
Eccentric anomaly
63.38495°
Mean motion
4.02665 °/min
Orbital period
89.4 mins
BSTAR
0.0073364
Loading maneuver chart data...
Computing Atmospheric mass density...
Loading historical data...
Loading historical data...
Loading historical data...
Loading historical data...
Loading historical data...
Loading historical data...
Loading historical data...

Documentation

Showing up to 5 results
|